TimeEDT,TemperatureF,Dew PointF,Humidity,Sea Level PressureIn,VisibilityMPH,Wind Direction,Wind SpeedMPH,Gust SpeedMPH,PrecipitationIn,Events,Conditions,WindDirDegrees,DateUTC
12:51 AM,75.0,71.1,87,29.92,9.0,Calm,Calm,-,N/A,,Clear,0,2012-08-16 04:51:00
1:47 AM,75.2,71.6,89,29.91,4.0,West,3.5,-,N/A,,Partly Cloudy,260,2012-08-16 05:47:00
1:51 AM,75.0,72.0,90,29.91,5.0,Calm,Calm,-,N/A,,Partly Cloudy,0,2012-08-16 05:51:00
2:51 AM,75.9,72.0,87,29.90,5.0,Calm,Calm,-,N/A,,Clear,0,2012-08-16 06:51:00
3:51 AM,78.1,73.0,84,29.90,10.0,WNW,4.6,-,N/A,,Clear,300,2012-08-16 07:51:00
4:51 AM,78.1,72.0,81,29.91,10.0,NW,4.6,-,N/A,,Clear,310,2012-08-16 08:51:00
5:51 AM,77.0,72.0,84,29.93,10.0,NW,5.8,-,N/A,,Clear,320,2012-08-16 09:51:00
6:51 AM,78.1,72.0,81,29.95,10.0,Variable,3.5,-,N/A,,Mostly Cloudy,0,2012-08-16 10:51:00
7:51 AM,79.0,73.0,82,29.96,10.0,NNE,5.8,-,N/A,,Scattered Clouds,20,2012-08-16 11:51:00
8:51 AM,81.0,73.0,77,29.97,10.0,Variable,4.6,-,N/A,,Scattered Clouds,0,2012-08-16 12:51:00
9:44 AM,82.4,73.4,74,29.98,10.0,North,6.9,-,N/A,,Overcast,10,2012-08-16 13:44:00
9:51 AM,82.0,73.0,74,29.98,10.0,Variable,5.8,-,N/A,,Mostly Cloudy,0,2012-08-16 13:51:00
10:04 AM,82.4,73.4,74,29.98,10.0,Variable,3.5,-,N/A,,Scattered Clouds,0,2012-08-16 14:04:00
10:51 AM,84.0,73.0,69,29.99,10.0,Calm,Calm,-,N/A,,Partly Cloudy,0,2012-08-16 14:51:00
11:51 AM,84.9,72.0,65,29.99,10.0,Variable,5.8,-,N/A,,Clear,0,2012-08-16 15:51:00
12:51 PM,84.9,69.1,59,29.98,10.0,Variable,4.6,-,N/A,,Clear,0,2012-08-16 16:51:00
1:51 PM,84.9,69.1,59,29.98,10.0,Variable,5.8,-,N/A,,Clear,0,2012-08-16 17:51:00
2:51 PM,86.0,68.0,55,29.97,10.0,Variable,4.6,-,N/A,,Clear,0,2012-08-16 18:51:00
3:51 PM,87.1,69.1,55,29.96,10.0,Variable,3.5,-,N/A,,Clear,0,2012-08-16 19:51:00
4:51 PM,84.0,71.1,65,29.96,10.0,Calm,Calm,-,N/A,,Clear,0,2012-08-16 20:51:00
5:51 PM,82.9,70.0,65,29.95,10.0,Calm,Calm,-,N/A,,Clear,0,2012-08-16 21:51:00
6:51 PM,82.9,70.0,65,29.96,10.0,SSE,3.5,-,N/A,,Clear,160,2012-08-16 22:51:00
7:51 PM,79.0,70.0,74,29.96,8.0,East,3.5,-,N/A,,Clear,90,2012-08-16 23:51:00
8:51 PM,77.0,71.1,82,29.96,7.0,East,3.5,-,N/A,,Clear,80,2012-08-17 00:51:00
9:51 PM,75.9,70.0,82,29.97,7.0,East,3.5,-,N/A,,Clear,100,2012-08-17 01:51:00
10:51 PM,78.1,70.0,76,29.98,9.0,SE,3.5,-,N/A,,Clear,140,2012-08-17 02:51:00
11:51 PM,79.0,70.0,74,29.99,10.0,SSW,3.5,-,N/A,,Clear,200,2012-08-17 03:51:00